Theta_e
329 329 329 330 330 330 331 332 333 333 334 335 337 338 339 340 342 343 342 342 343 342 342 343 344 345 345 346 347 347 346 344 345 345 345 345 346 346 347 348 349 349 350 350 351 351 353 356 356 357 358 358 359 359 359 360 361 361 362 362 360 360 358
329 330 330 331 331 331 331 333 333 334 334 335 336 338 339 339 341 342 342 342 343 342 342 343 345 345 345 346 347 347 347 345 347 350 347 347 351 349 348 348 349 349 349 350 351 352 354 354 357 356 357 358 359 359 358 359 360 360 361 360 359 358 359
329 330 330 331 331 331 331 332 333 334 334 335 336 337 338 339 341 342 343 342 342 342 343 343 345 345 346 346 346 347 347 348 347 348 346 345 347 349 349 349 349 349 349 351 351 351 354 354 355 356 356 356 357 358 359 359 359 360 360 360 360 359 358
329 330 330 331 332 332 332 333 333 335 335 335 336 337 338 340 341 342 343 343 342 342 342 342 344 345 345 345 345 346 347 347 349 350 348 347 346 348 349 349 350 350 350 350 351 352 353 355 354 355 359 357 356 357 358 358 358 359 360 361 360 359 359
331 332 331 332 331 331 331 332 333 334 335 336 336 338 338 340 341 342 343 344 343 342 343 343 344 345 346 346 346 346 347 347 348 350 351 350 350 349 349 348 349 349 350 351 353 355 355 355 354 354 354 356 356 355 356 357 357 359 359 360 359 359 358
331 331 332 332 333 331 332 332 334 335 335 336 336 337 338 339 340 341 342 344 344 344 344 344 344 345 345 346 346 346 347 348 349 350 350 351 350 349 349 349 349 350 349 350 353 353 353 354 354 355 354 353 354 354 354 354 355 357 358 359 359 358 358
332 332 332 333 334 334 334 333 334 335 336 337 337 339 339 339 339 341 342 342 344 343 342 343 344 344 345 346 346 347 346 347 348 348 350 350 350 350 350 351 353 350 351 353 352 353 352 352 354 354 354 354 355 354 355 355 355 356 358 359 358 358 359
332 331 333 333 335 336 341 340 337 336 338 338 336 337 338 339 340 340 341 342 343 344 343 343 344 344 345 347 347 346 346 347 348 349 350 350 349 350 349 349 351 352 353 351 352 354 353 353 353 355 354 353 353 354 355 355 355 356 358 358 358 358 358
336 333 333 334 335 336 339 341 341 341 340 337 337 336 338 338 339 340 341 342 343 343 343 344 344 345 346 347 347 347 347 348 348 349 349 349 349 349 349 349 349 351 350 349 350 352 353 353 353 354 354 353 353 354 354 355 355 356 358 359 358 358 358
334 333 334 336 335 337 338 339 339 339 340 338 338 337 336 338 339 340 341 342 343 343 343 344 345 346 346 346 347 347 347 347 348 349 349 348 349 348 349 349 349 351 349 349 349 348 351 352 352 352 353 352 353 354 354 355 353 354 355 356 358 358 358
335 335 333 335 335 335 338 338 337 337 338 339 338 339 338 338 339 340 341 342 343 344 345 345 348 347 347 347 347 347 347 347 348 348 349 349 349 349 349 349 349 350 350 349 348 349 350 351 352 351 351 350 352 352 353 355 352 352 354 356 358 359 359
334 334 334 334 334 335 336 338 339 339 338 338 340 341 340 340 340 341 342 343 345 346 346 347 350 350 349 349 348 348 347 348 348 348 349 350 350 350 350 350 350 349 349 350 349 348 347 347 348 349 350 351 351 351 352 354 353 352 352 355 357 358 358
333 334 335 334 335 336 336 337 338 339 340 340 340 340 341 342 343 343 344 345 345 346 346 346 348 348 347 346 345 346 348 349 348 350 350 351 350 351 351 349 348 348 348 349 347 347 347 347 348 348 348 350 351 351 352 352 353 354 354 354 355 357 357
333 335 335 335 335 336 336 337 337 338 339 340 339 341 341 342 342 344 344 343 343 344 346 347 346 345 345 346 344 344 347 347 348 349 349 349 349 350 352 352 350 349 350 349 348 349 348 348 349 350 352 352 351 352 354 354 354 354 355 355 355 355 355
330 332 334 334 334 335 336 336 336 336 337 339 340 339 339 340 340 341 342 343 343 343 342 343 343 344 345 344 343 341 343 345 346 347 352 351 349 350 352 352 349 349 350 351 351 351 351 352 352 352 352 352 351 352 353 353 353 354 355 355 355 355 355
328 331 332 333 334 335 335 335 335 335 337 337 337 337 338 339 339 340 340 341 341 342 343 343 343 343 343 343 342 344 345 345 346 345 348 349 349 349 351 352 352 352 351 350 351 351 354 351 350 349 348 347 344 341 341 340 341 342 341 343 351 355 353
324 326 330 332 332 333 334 334 334 334 335 336 336 336 337 338 338 339 340 341 341 342 343 344 343 342 343 341 342 344 345 346 345 343 341 346 348 348 350 351 351 351 351 351 350 349 350 349 347 349 345 342 337 335 334 334 334 332 331 335 340 351 353
325 326 328 330 331 332 333 332 332 333 333 335 337 338 337 337 338 339 339 340 340 342 344 343 343 341 341 342 342 343 344 344 344 345 345 345 345 347 348 349 348 347 348 350 349 349 350 348 347 341 339 335 332 331 331 330 329 325 329 332 333 341 351
325 326 326 327 330 332 332 332 333 333 334 335 336 337 337 338 338 338 339 339 341 343 343 343 343 342 341 342 342 342 343 342 342 342 344 345 346 347 348 347 348 349 348 348 349 348 347 344 337 332 330 329 329 328 327 327 326 324 327 328 329 333 346
325 327 328 328 329 330 332 333 334 334 335 335 337 338 338 340 338 339 341 342 343 342 342 341 341 341 341 341 341 341 341 341 341 341 342 343 344 345 346 346 344 344 345 346 347 343 338 334 331 330 329 329 327 326 324 324 323 321 323 324 327 331 342
325 327 328 329 329 331 331 332 333 334 334 336 338 339 339 339 339 339 339 339 339 340 340 340 339 339 339 339 340 340 340 340 340 340 341 343 342 341 342 343 342 342 343 344 344 340 334 331 329 329 328 326 327 326 323 321 318 318 320 321 324 328 343
327 329 329 330 330 331 331 332 332 333 333 337 338 338 338 338 339 338 338 339 338 338 338 338 338 338 338 338 339 338 339 340 340 340 341 343 342 341 341 341 340 341 342 337 333 332 330 329 329 327 325 325 324 323 322 322 317 317 318 320 323 337 345
328 328 329 330 332 332 334 335 336 337 338 338 337 337 337 339 339 338 337 336 336 337 337 337 336 337 337 338 338 339 340 340 339 340 340 341 341 341 341 342 341 340 337 332 331 329 328 327 327 327 325 324 322 321 322 322 318 314 314 317 324 339 343
329 330 332 333 334 336 336 337 338 339 339 339 339 339 339 340 338 338 336 336 336 335 335 335 334 335 337 338 340 339 339 339 339 339 338 337 337 336 336 335 336 335 335 331 329 328 328 327 324 324 325 325 323 323 321 322 319 312 312 315 321 337 338
332 333 334 334 334 335 337 338 339 339 339 339 338 340 341 340 339 337 335 336 336 335 334 335 336 337 337 338 340 340 340 340 339 337 336 334 334 334 333 332 332 332 332 330 329 327 326 325 322 322 324 325 327 328 323 322 321 312 312 314 319 333 336
332 333 335 336 338 338 338 340 339 338 338 338 337 340 340 340 339 337 337 337 337 337 336 338 338 339 340 339 339 338 338 337 336 335 334 333 333 332 332 332 330 328 327 326 325 323 324 324 324 323 323 325 325 326 325 322 321 318 311 312 315 323 331
334 334 335 337 337 339 337 338 337 337 337 338 339 341 341 340 339 338 338 338 337 336 337 338 339 338 338 337 337 336 335 335 335 334 333 333 332 331 330 328 327 325 323 321 322 322 323 323 323 322 322 322 323 323 325 326 323 320 311 311 313 318 324
332 333 336 336 338 337 334 332 333 334 336 339 340 340 340 340 338 338 337 337 335 336 338 338 338 337 337 336 335 335 334 333 333 332 331 330 329 326 324 324 323 322 322 323 323 323 322 323 322 320 319 319 319 319 319 324 327 323 317 312 311 314 321
329 329 328 329 330 331 328 326 325 325 327 330 336 338 339 339 337 336 336 334 335 337 338 338 337 336 336 335 334 333 332 332 331 330 330 328 327 324 322 323 323 324 324 323 323 322 321 320 320 319 318 318 317 317 317 318 323 325 324 317 311 311 315
326 325 325 325 326 326 327 324 323 323 324 326 328 331 336 336 334 334 333 333 336 337 337 336 335 335 334 333 332 332 332 331 330 329 328 326 325 324 323 323 324 325 325 324 323 321 319 318 318 318 317 316 316 316 316 316 317 323 325 323 315 311 312
325 323 323 323 324 328 328 326 323 323 324 326 327 328 330 333 332 332 330 332 335 334 333 331 330 328 327 326 326 326 326 326 327 327 328 328 326 325 325 324 324 323 324 324 322 320 318 318 319 317 317 316 315 315 315 315 315 317 323 327 324 318 316
323 323 322 322 324 326 326 327 326 325 325 326 327 327 327 327 329 327 325 328 331 329 328 327 326 325 324 324 323 323 323 321 320 321 322 323 325 327 327 326 326 324 323 322 320 320 320 320 320 319 317 315 315 315 314 314 315 315 318 325 331 327 321
322 321 321 321 323 325 325 327 326 324 324 323 325 326 326 325 323 323 324 325 326 327 327 326 325 324 322 320 320 320 320 320 318 317 318 318 318 319 322 324 326 325 324 322 321 321 321 321 320 319 318 317 316 316 315 314 314 314 315 318 322 326 328
320 320 321 321 323 323 323 323 323 323 323 323 323 324 324 323 322 321 321 323 325 325 325 325 324 320 320 320 321 322 322 322 324 317 313 312 313 314 315 317 320 319 318 318 319 319 319 320 320 319 317 315 315 316 316 315 313 312 313 315 319 322 324
321 320 319 319 320 322 322 323 323 323 322 321 321 322 321 320 320 319 320 321 323 324 324 324 324 320 318 319 320 320 320 316 314 313 311 310 308 306 306 308 311 314 313 312 310 315 318 317 318 318 316 316 316 317 316 316 315 312 304 309 305 317 322
319 318 318 319 320 321 323 324 322 321 320 319 320 320 320 319 320 320 319 320 321 323 322 321 318 316 315 315 315 315 315 314 313 313 312 310 309 308 306 305 300 304 311 309 309 304 302 309 316 316 315 312 311 312 315 315 312 301 298 298 300 301 305
317 317 318 319 319 320 321 321 322 321 320 319 320 320 320 319 319 319 319 319 319 319 318 317 317 316 315 317 315 316 314 312 311 310 310 310 310 310 310 307 305 296 298 305 305 300 296 296 298 303 309 317 311 307 302 301 298 296 296 296 297 299 300
318 318 319 320 320 320 321 320 320 320 319 319 319 319 319 319 318 319 319 318 316 316 316 316 316 314 314 316 318 318 315 312 314 313 312 311 312 312 311 310 308 306 298 295 297 296 295 295 294 295 297 301 308 313 308 301 297 296 296 297 297 297 297
Wind_Speed
5 4 6 8 9 10 11 11 11 11 11 11 11 12 11 10 10 9 9 10 11 10 9 9 9 7 8 7 6 6 7 7 6 6 6 6 6 6 6 5 6 6 5 5 6 6 6 5 5 5 5 5 5 5 6 5 4 4 3 3 3 3 4
7 5 6 8 10 10 11 11 10 9 9 10 10 11 10 11 10 10 10 11 12 12 11 9 9 8 8 7 6 6 7 7 7 5 5 5 4 4 5 6 6 6 6 6 6 5 5 5 5 5 5 4 5 5 5 5 5 4 4 3 3 4 4
6 7 6 7 9 10 9 9 10 10 10 9 10 9 11 11 12 12 11 11 11 10 10 11 10 9 7 7 7 7 7 6 6 7 7 6 7 6 5 5 5 5 6 5 5 5 4 5 5 5 5 5 5 5 5 5 5 5 4 4 4 4 4
6 7 6 7 9 10 11 10 12 11 10 11 12 12 12 12 11 10 10 11 12 11 11 11 10 10 9 8 8 7 8 7 7 7 7 6 6 5 5 5 5 4 4 6 5 5 4 4 4 5 5 5 6 5 4 5 5 5 5 5 4 5 5
4 5 4 5 6 7 8 9 10 11 12 12 12 11 11 11 10 9 9 9 11 13 12 12 9 9 8 8 7 7 8 8 6 6 5 5 5 5 5 5 5 5 6 4 4 5 5 5 5 5 5 5 5 5 6 5 6 6 5 5 5 5 5
5 6 7 7 6 7 8 9 9 11 12 12 12 11 10 10 9 11 10 10 10 9 8 8 9 9 10 10 9 8 6 6 6 6 6 6 6 5 6 6 6 5 5 6 5 5 5 5 5 5 5 5 5 5 5 5 6 5 6 5 5 5 5
3 4 5 7 4 3 5 6 6 6 7 9 9 9 9 10 11 11 9 10 10 11 10 10 10 9 9 8 8 8 8 8 7 7 6 6 6 6 6 5 5 6 6 4 5 5 5 5 5 5 5 5 5 5 6 6 6 5 5 5 6 6 6
1 2 3 4 3 2 3 4 5 4 3 3 7 8 10 10 9 9 10 10 10 9 9 10 10 9 8 7 8 10 9 9 7 6 6 7 6 6 6 6 5 6 5 6 6 5 5 6 5 5 5 5 6 6 6 6 7 5 5 5 6 6 5
3 2 4 4 3 3 4 3 5 6 5 5 7 9 10 10 10 11 11 11 9 10 11 11 11 9 8 7 7 9 8 7 6 6 7 7 6 7 6 6 6 5 6 6 5 4 5 5 5 5 5 6 6 6 6 6 6 4 4 5 7 7 6
4 3 2 2 0 1 2 3 5 3 5 6 5 6 9 10 10 10 11 10 10 11 12 10 7 6 7 8 8 7 7 6 6 7 7 7 6 7 6 5 6 5 6 6 4 4 4 5 5 5 6 6 7 7 7 5 1 4 5 7 7 7 8
1 2 0 2 2 2 1 2 3 4 4 4 4 4 4 7 9 9 10 9 10 9 7 5 4 4 4 5 6 6 7 7 6 7 7 7 6 7 6 6 5 4 5 5 4 4 4 5 5 6 6 6 8 8 7 7 8 7 8 7 7 8 7
3 2 2 2 4 3 2 1 1 1 3 3 2 2 3 4 6 8 8 7 7 8 9 8 8 8 7 4 3 2 2 3 4 5 6 5 5 6 5 5 5 5 4 4 4 3 2 3 4 5 7 8 8 8 8 7 8 9 8 7 7 7 6
0 3 5 6 6 5 3 2 1 1 1 1 2 0 1 1 2 4 6 7 8 9 10 9 9 9 8 7 7 5 4 3 3 3 4 4 4 3 3 3 4 4 4 3 3 2 1 2 1 3 5 7 7 8 8 7 6 7 8 8 8 8 7
3 4 5 5 6 6 5 4 3 2 2 1 0 2 3 4 3 2 5 7 5 4 4 5 8 8 7 6 6 7 7 7 6 4 3 3 3 3 2 2 2 1 2 3 4 3 2 1 0 2 3 4 5 6 5 5 6 6 7 7 7 6 7
3 5 7 6 6 5 6 5 4 3 3 3 3 5 6 5 5 5 4 5 7 9 8 8 8 5 4 6 5 3 3 0 4 6 5 5 5 5 4 4 3 2 2 2 1 0 1 2 4 5 5 4 5 5 4 3 4 3 4 5 6 6 7
5 4 3 3 4 5 5 5 5 3 4 4 5 7 6 5 5 5 4 3 5 7 7 10 11 8 4 6 7 6 2 3 3 3 4 2 2 4 6 6 5 4 5 4 3 2 2 3 2 1 2 3 4 5 4 4 4 9 14 11 7 6 4
3 2 0 1 3 4 4 4 4 4 6 6 5 6 6 6 6 7 4 2 3 5 5 8 9 8 9 9 8 7 6 5 3 3 3 3 4 4 5 5 5 5 4 3 3 3 3 2 1 2 4 4 4 4 3 4 5 12 8 10 12 8 5
4 3 4 4 3 3 3 3 4 4 4 3 4 5 6 4 5 5 6 6 5 5 5 4 3 6 6 7 8 7 4 3 3 4 6 6 4 5 2 3 4 4 3 1 2 3 2 2 3 4 5 5 5 5 5 5 10 9 8 8 8 7 5
5 4 4 4 3 2 3 3 4 3 4 3 3 3 4 6 6 6 5 5 6 6 6 6 6 5 6 6 5 4 4 3 3 5 7 8 8 6 3 4 4 3 2 2 3 3 2 2 5 5 4 5 5 5 5 4 10 10 8 6 6 7 5
3 3 2 1 3 4 2 1 1 3 3 4 3 3 4 5 6 6 6 5 5 7 6 7 6 6 7 5 5 7 8 8 7 6 3 3 7 6 5 4 4 5 5 4 3 4 4 4 5 4 5 5 5 4 3 3 9 10 8 6 6 2 1
5 2 0 1 3 3 3 3 1 1 1 4 6 5 6 6 7 6 6 5 5 5 7 7 8 7 8 8 6 5 4 6 8 5 4 6 5 5 5 6 5 5 4 4 4 4 4 4 5 4 5 6 5 4 3 4 11 10 8 7 6 4 2
3 2 2 1 1 2 2 2 2 2 3 1 2 3 4 6 6 7 6 5 7 7 7 8 7 7 6 7 6 5 6 6 7 7 7 5 4 5 6 6 5 4 5 6 5 5 5 5 6 6 5 4 3 3 3 3 9 8 9 9 8 4 2
2 1 1 2 3 1 1 1 1 1 2 2 2 3 4 5 5 5 6 5 4 4 4 6 5 3 2 3 6 5 4 4 4 5 6 4 5 5 5 6 6 6 6 7 5 5 6 6 7 5 4 4 3 4 3 5 9 10 10 9 8 7 7
2 2 3 3 4 4 2 1 1 1 1 3 5 4 4 5 5 6 6 4 3 3 3 5 4 2 3 3 7 5 3 4 5 4 5 5 6 7 7 7 7 7 6 8 7 6 5 5 6 6 5 5 5 5 6 6 10 12 11 10 9 8 9
4 4 4 4 4 4 3 2 2 2 2 3 3 5 6 6 7 7 6 5 4 3 4 4 5 4 4 5 4 5 6 5 4 5 6 6 6 7 7 7 8 8 8 7 7 7 6 5 6 6 5 5 7 12 9 7 8 12 11 11 10 8 7
5 4 4 5 4 3 3 3 4 3 3 4 4 6 8 8 7 8 7 6 6 5 5 6 6 6 5 6 6 6 7 7 7 7 7 7 5 7 8 7 8 8 9 8 7 7 6 6 6 7 7 6 6 6 6 7 7 10 13 13 14 12 9
4 4 5 4 4 4 4 4 4 4 4 4 5 6 6 7 8 7 7 6 7 7 6 7 7 7 7 6 7 8 8 8 7 9 7 6 7 8 7 7 8 8 8 8 7 7 7 8 7 7 6 5 6 6 7 7 7 9 13 12 12 12 9
7 6 6 6 4 3 5 4 5 5 5 4 6 6 6 7 8 6 7 8 8 8 8 7 7 7 7 8 9 9 8 8 7 7 7 7 7 8 8 7 8 7 7 6 7 9 9 7 6 6 6 6 6 7 6 9 13 6 11 12 11 10 9
7 6 5 5 4 3 4 6 6 6 6 5 6 7 7 10 9 7 8 8 8 7 8 8 8 8 9 9 9 9 8 8 9 7 6 7 7 8 8 7 8 7 7 7 7 7 7 6 4 5 6 6 6 6 7 7 8 13 9 10 10 10 10
6 6 6 5 5 5 5 7 7 5 5 5 6 7 7 10 10 8 8 8 6 7 8 9 9 9 9 8 8 9 9 8 9 8 7 8 8 9 9 8 7 7 5 5 6 6 6 5 4 5 6 6 6 6 6 6 5 9 12 9 11 12 13
6 6 6 7 7 8 9 8 7 7 8 7 7 7 7 8 12 10 9 6 6 7 8 8 8 8 8 9 8 8 8 8 8 7 6 6 7 8 7 7 7 6 4 5 6 6 6 5 5 5 5 5 5 5 5 5 5 6 9 14 14 14 16
6 5 6 7 7 8 7 5 3 8 10 9 7 6 6 6 9 12 7 5 6 7 7 8 8 8 7 6 6 6 6 7 7 7 7 7 5 5 5 6 5 6 5 5 6 5 5 5 5 5 5 5 4 4 4 4 5 6 6 7 12 13 15
5 5 6 8 8 10 7 6 7 8 9 8 6 5 6 7 7 8 7 7 6 6 7 7 8 7 7 7 7 6 7 8 6 6 6 6 5 5 5 5 5 6 5 5 5 5 5 5 5 5 5 5 4 4 4 5 5 4 4 5 6 7 9
7 5 3 5 5 8 8 8 7 8 8 6 3 5 6 6 5 7 8 7 6 6 6 7 6 6 6 6 5 5 5 6 9 8 6 6 6 5 5 5 5 6 5 4 4 5 5 5 5 5 4 4 4 5 5 5 4 4 5 4 5 6 6
7 7 7 6 4 6 8 8 8 8 8 4 2 4 6 5 4 6 8 7 6 6 7 7 7 7 6 5 5 5 5 5 5 5 6 6 6 7 7 5 4 4 6 5 3 3 3 5 4 4 3 4 4 5 6 5 4 2 2 2 4 3 7
6 7 6 5 5 6 7 8 9 8 7 3 1 4 6 6 5 5 6 6 6 7 8 7 6 6 6 5 5 5 5 5 5 4 5 5 6 6 7 11 12 7 4 4 8 10 9 6 4 3 3 5 4 4 4 5 3 3 2 1 2 7 10
9 8 8 7 8 7 8 7 7 8 7 4 3 6 6 6 6 6 5 5 6 8 9 8 7 6 5 5 5 5 5 5 6 4 5 5 5 6 7 6 8 12 12 10 10 10 12 13 11 9 7 5 4 6 10 8 6 4 3 5 8 12 13
8 9 9 7 9 9 9 7 7 8 7 5 6 6 6 6 5 5 5 5 5 6 8 7 8 7 6 6 5 6 5 5 5 5 6 5 5 6 7 7 8 7 10 11 10 11 12 11 10 10 9 8 6 4 4 6 5 7 9 9 11 12 12
Wind_Direction
196 195 184 183 182 185 187 188 188 186 185 186 185 184 183 181 183 181 185 185 188 189 190 188 190 184 189 196 192 185 193 196 192 194 193 198 197 187 189 192 191 203 197 195 211 211 224 214 211 218 213 211 217 220 220 220 227 233 226 223 218 216 225
188 202 197 182 182 186 188 188 187 186 187 188 188 186 184 184 180 183 188 188 190 189 186 189 189 193 188 191 188 186 188 192 189 192 189 194 197 193 195 193 199 206 205 210 210 216 219 217 200 214 221 218 228 227 226 219 220 224 224 218 218 238 232
204 199 200 191 183 185 180 181 187 188 188 188 187 186 189 189 186 187 184 186 191 193 186 186 190 190 187 182 183 194 189 179 181 179 179 186 191 191 190 192 203 206 214 213 211 219 210 216 202 211 211 220 230 227 227 226 222 216 218 212 214 225 232
202 209 212 212 199 185 179 180 184 188 191 189 189 191 192 194 192 189 187 187 188 189 191 193 188 186 184 185 192 191 191 188 185 178 178 179 187 185 175 191 197 201 205 212 213 210 218 200 207 211 220 218 228 230 223 226 224 218 217 206 218 222 226
230 213 222 240 227 202 188 184 183 185 191 193 191 192 193 194 190 187 192 195 193 193 194 191 189 187 187 189 193 192 193 187 185 181 172 173 176 173 181 194 192 197 214 218 214 215 218 213 205 210 218 218 232 224 224 220 223 215 217 203 220 220 227
214 203 206 235 228 219 206 197 189 187 188 189 189 189 190 188 187 194 195 192 198 205 198 189 192 190 191 193 193 192 186 192 187 183 180 175 170 176 187 193 190 201 204 216 208 214 215 212 216 215 213 211 220 231 224 222 225 216 216 204 219 222 225
211 242 227 214 226 240 238 218 208 203 198 194 189 187 182 182 188 196 191 195 198 198 197 197 199 195 201 190 195 187 189 190 188 190 183 179 181 185 192 190 195 198 208 198 217 212 218 222 227 229 226 225 225 228 234 231 235 220 210 210 217 219 224
177 216 259 281 274 230 221 229 229 222 203 197 186 186 185 186 185 186 189 196 197 197 201 202 200 199 199 193 192 197 196 194 188 187 188 189 189 194 191 194 196 201 194 205 216 200 214 221 228 223 224 232 234 236 235 235 235 220 205 213 217 226 216
335 217 216 231 253 312 320 296 229 211 208 202 197 193 191 186 185 187 191 192 193 193 202 202 203 198 189 190 194 203 204 191 187 183 188 199 205 207 202 200 201 197 202 213 222 206 207 219 223 237 235 236 243 240 240 237 236 241 229 223 218 226 225
342 330 250 207 156 307 294 317 319 260 209 212 214 203 196 192 190 190 190 190 188 196 201 198 197 187 182 187 195 193 186 192 192 187 191 201 208 212 217 214 211 204 207 214 217 222 221 219 230 234 233 235 244 238 238 229 146 257 235 242 241 231 234
38 350 161 130 115 86 58 355 325 313 287 246 231 228 216 200 192 190 192 186 189 195 181 150 123 149 184 194 191 183 187 196 190 196 201 210 206 211 205 209 216 217 221 218 217 221 225 242 235 243 238 234 233 240 230 216 210 218 231 233 232 235 236
98 102 106 145 135 101 74 116 262 323 332 331 340 271 251 238 208 196 187 179 165 146 147 151 140 136 129 100 82 32 308 244 209 208 213 215 218 219 214 206 207 212 228 232 247 267 283 291 293 267 252 239 240 238 238 216 217 232 239 232 225 226 234
299 135 159 164 156 144 137 96 72 42 56 0 295 17 56 16 253 184 157 157 163 163 155 152 141 132 125 125 125 131 140 156 186 203 202 203 201 191 182 194 186 174 143 117 122 117 96 81 3 298 276 270 258 247 243 236 215 220 223 226 226 223 227
286 167 174 166 161 156 148 146 136 122 113 114 62 56 57 44 40 138 164 161 146 98 68 84 103 105 116 143 173 172 154 149 150 144 146 142 135 122 102 78 66 84 123 155 164 189 187 198 143 342 4 334 315 299 288 267 244 230 232 232 231 229 229
249 203 186 180 167 151 145 152 158 158 145 136 110 75 57 52 45 46 55 70 84 103 105 84 57 43 110 156 173 70 29 351 155 151 153 156 164 163 163 160 150 161 192 254 316 355 354 2 5 17 19 21 14 351 356 356 348 351 330 284 263 240 242
236 210 180 171 157 154 149 143 139 107 84 78 107 112 120 122 119 97 87 89 110 121 134 129 131 132 91 60 52 68 107 279 321 1 10 358 195 181 177 177 168 159 176 179 164 181 52 54 71 118 85 85 54 38 16 17 17 360 355 355 340 304 282
338 13 276 186 169 155 146 152 163 163 138 127 153 165 155 155 143 133 107 61 78 67 71 97 115 126 139 135 142 148 180 189 155 121 150 248 281 228 199 166 148 150 146 136 154 144 112 103 311 26 53 33 43 47 37 24 10 360 356 359 359 360 352
232 205 220 216 193 158 164 162 164 182 203 174 151 155 144 132 124 118 120 114 95 105 109 107 131 143 141 143 156 171 166 139 150 182 183 174 207 276 265 113 99 84 96 89 40 34 24 15 53 52 52 62 56 48 31 20 354 349 353 2 357 358 28
217 205 218 250 250 177 174 190 176 155 136 161 203 135 113 115 110 112 128 141 142 137 131 131 124 122 132 150 145 118 117 122 193 212 192 175 164 176 178 125 126 122 90 49 53 64 37 54 49 41 41 51 57 48 33 2 345 337 346 353 1 7 29
255 230 257 329 341 351 348 2 155 153 145 121 141 126 123 130 129 135 136 135 155 151 137 122 127 134 140 144 150 154 163 169 187 217 248 178 160 153 136 118 93 89 96 108 104 87 72 61 72 69 63 66 68 59 28 3 347 330 333 347 351 11 72
269 270 152 3 338 343 17 14 19 339 141 144 147 141 127 123 121 119 113 124 127 127 130 143 153 162 152 154 162 154 164 175 183 182 202 221 196 133 128 132 148 131 97 88 98 102 100 90 88 80 62 58 60 61 19 7 349 339 332 347 340 328 132
308 340 330 24 29 357 29 5 321 270 264 208 104 115 113 114 111 116 125 141 146 153 155 150 149 147 154 155 146 163 192 206 181 171 190 207 176 141 131 139 141 128 114 103 107 119 122 104 88 72 67 70 87 107 61 2 7 359 1 3 359 9 89
197 271 356 14 69 61 43 320 349 253 205 176 140 140 131 127 119 118 123 128 132 133 118 90 80 83 103 154 147 170 193 232 220 186 164 153 126 112 112 108 104 99 106 100 89 80 71 73 71 74 71 60 63 69 52 22 9 10 20 19 26 58 68
31 56 74 63 64 79 80 57 48 83 114 150 165 159 139 127 108 97 85 89 93 111 94 111 128 113 137 198 149 144 138 183 204 182 116 103 96 96 90 86 94 107 110 113 109 89 75 69 72 66 66 68 66 61 62 39 19 13 15 34 42 92 100
81 77 74 66 78 70 67 99 134 132 124 107 112 128 124 120 120 112 131 148 143 134 113 116 131 131 128 134 119 119 126 132 107 82 83 84 88 95 96 94 99 104 96 95 96 94 91 89 84 83 64 51 58 56 52 38 26 20 22 40 60 77 83
108 102 81 79 67 75 77 81 86 65 74 91 103 119 125 125 118 124 141 140 144 138 128 117 115 108 96 90 91 92 90 90 84 79 81 84 80 88 92 98 94 95 99 94 96 102 96 89 81 72 58 47 49 56 54 49 35 27 31 37 45 65 81
93 86 86 85 85 88 81 66 66 68 68 82 98 105 108 114 106 105 110 108 99 90 86 88 89 88 89 88 87 84 82 83 85 87 76 78 87 90 86 87 97 97 95 98 96 96 92 87 83 75 62 51 48 45 43 48 43 32 34 38 48 60 77
88 71 64 63 62 61 89 78 66 61 69 82 90 90 95 99 92 93 86 82 78 78 79 79 79 80 79 78 81 82 83 83 76 74 82 82 85 86 82 78 82 85 89 92 97 95 89 87 87 86 73 56 47 46 38 37 45 40 35 38 44 48 62
109 107 99 94 71 43 87 85 67 47 39 41 67 84 95 94 86 76 77 73 76 80 83 83 81 77 76 74 71 72 70 69 75 75 75 78 75 81 81 81 82 83 87 94 90 85 82 74 65 68 64 54 42 33 29 28 38 39 40 38 47 54 56
105 101 90 72 64 47 59 82 78 63 49 48 50 55 71 93 89 80 78 80 84 85 86 84 81 78 76 72 73 76 78 80 81 83 82 88 87 84 91 85 82 80 77 80 82 81 77 63 58 59 56 55 46 38 32 26 17 27 37 45 55 67 72
123 117 109 105 89 71 45 29 48 68 54 37 57 67 74 93 100 95 87 72 84 86 85 81 79 81 83 86 87 88 89 84 85 79 75 81 93 98 98 95 98 92 79 84 79 79 81 68 67 69 70 62 57 45 37 28 31 32 25 56 76 80 86
90 89 95 97 93 84 79 55 49 80 68 50 41 57 72 85 102 103 97 85 88 87 90 90 88 83 82 83 79 82 84 81 70 66 67 69 64 76 83 99 102 100 95 84 83 85 89 94 86 81 76 73 67 58 51 40 42 40 31 44 84 85 85
126 142 135 117 121 118 108 88 52 64 77 63 23 50 59 76 81 101 107 98 93 92 94 93 91 85 80 78 72 64 73 76 75 67 58 56 61 60 57 59 82 87 83 84 90 86 89 88 87 84 76 73 65 63 52 51 45 35 36 20 63 78 92
148 141 108 110 127 125 123 119 121 96 84 72 31 62 70 67 90 105 104 102 100 95 91 90 88 88 83 74 68 65 59 70 75 74 59 40 39 39 36 34 43 58 48 45 53 99 100 94 88 86 90 85 79 72 67 63 58 41 26 34 61 84 77
157 144 132 118 110 108 115 112 96 93 89 75 50 102 94 96 95 96 109 110 111 108 101 97 90 88 80 72 73 68 66 61 64 76 83 77 65 59 47 24 15 66 79 55 34 19 78 107 91 86 66 78 63 80 86 72 74 74 352 5 347 51 114
140 131 124 120 116 113 107 106 113 106 105 103 130 107 99 94 89 89 102 114 120 117 111 109 101 94 83 76 86 88 85 80 76 79 83 90 91 91 67 49 50 31 60 63 40 54 51 68 95 100 109 89 52 18 86 101 110 60 41 350 43 62 79
142 140 136 138 121 115 115 115 113 111 111 128 121 96 97 93 95 103 105 119 135 130 127 125 117 109 110 105 101 109 108 107 101 89 89 92 106 101 104 96 52 44 45 64 75 70 71 71 68 63 50 79 114 64 61 71 74 69 92 101 95 92 93
148 142 142 142 135 134 128 127 125 124 128 132 109 101 97 93 86 102 110 116 127 127 125 131 128 129 130 122 115 113 110 113 113 111 103 96 100 108 114 106 98 67 42 43 53 60 68 72 69 64 63 52 65 108 82 67 70 93 104 106 97 93 89